BLOCK DM-SL R/B

基本信息
目录编号:
37817
目录名称:
BLOCK DM-SL R/B
国际标识:
2011-051B
轨道中心:
EARTH
物体状态:
在轨
发射日期:
2011-09-24 UTC
国别:
(SEAL)
轨道信息
数据来源: 国际轨道数据
星历时间: 2026-07-14T05:00:57+0800
半长轴: 24946.15km
偏心率: 0.6817863
轨道倾角: 0.923°
近地点辐角: 117.879°
升交点赤经: 8.146°
平近点角: 231.897°
近地点: 1560.069km
远地点: 35575.957km
周期: 653.529分钟
每日圈数: 2.203421
详细信息
发射场:
SEAL
轨道高度:
LEO
数据来源:
AOE Integration Group
参考系:
TEME
时间系统:
UTC
历元类型:
SGP4
2D轨道图
3D轨道图
轨道高度分析图
轨道倾角分析图
轨道综合分析图
查看轨道综合分析图